Вернуться в каталог

METEOR 2-20 DEB

АктивенPO
NORAD 44698·DEBRIS·🇷🇺 Russia

Запущен Sep 28, 1990 с Plesetsk Cosmodrome

Loading…

Ближайшие Пролёты (ближайшие 24 часа)

TLE

УстаревающийSource: Space-Track

Эпоха: Sep 6, 2026, 21:08 UTC

1 44698U 90086C   26249.88089563  .00000850  00000-0  54443-3 0  9990
2 44698  82.5083  86.1163 0022681 297.2787  62.6073 14.02261910629675

Отслеживайте METEOR 2-20 DEB в реальном времени с AllMySat

Download on the App Store